SCP
0 0 0 0 0 0 0 0 0 0 0 0 0 0 0 0 0 0 0 0 0 0 0 0 0 0 0 0 0 0 0 0 0 0 0 0 0 0 0 0 0 0 0
0 0 0 0 0 0 0 0 0 0 0 0 0 0 0 0 0 0 0 0 0 0 0 0 0 0 0 0 0 0 0 0 0 0 0 0 0 0 0 0 0 0 0
0 0 0 0 0 0 0 0 0 0 0 0 0 0 0 0 0 0 0 0 0 0 0 0 0 0 0 0 0 0 0 0 0 0 0 0 0 0 0 0 0 0 0
1 0 0 0 0 0 0 0 0 0 0 0 0 0 0 0 0 0 0 0 0 0 0 0 0 0 0 0 0 0 0 0 0 0 0 0 0 0 0 0 0 0 0
1 1 0 0 0 0 0 0 0 0 0 0 0 0 0 0 0 0 0 0 0 0 0 0 0 0 0 0 0 0 0 0 0 0 0 0 0 0 0 0 0 0 0
1 1 1 1 0 0 0 0 0 0 0 0 0 0 0 0 0 0 0 0 0 0 0 0 0 0 0 0 0 0 0 0 0 0 0 0 0 0 0 0 0 0 0
1 1 1 1 1 0 0 0 0 0 0 0 0 0 0 0 0 0 0 0 0 0 0 0 0 0 0 0 0 0 0 0 0 0 0 0 0 0 0 0 0 0 0
1 1 1 1 1 0 0 0 0 0 0 0 0 0 0 0 0 0 0 0 0 0 0 0 0 0 0 0 0 0 0 0 0 0 0 0 0 0 0 0 0 0 0
2 2 1 1 1 1 1 1 0 0 0 0 0 0 0 0 0 0 0 0 0 0 0 0 0 0 0 0 0 0 0 0 0 0 0 0 0 0 0 0 0 0 0
2 2 2 1 1 1 1 1 1 0 0 0 0 0 0 0 0 0 0 0 0 0 0 0 0 0 0 0 0 0 0 0 0 0 0 0 0 0 0 0 0 0 0
2 2 2 2 1 1 1 1 1 0 0 0 0 0 0 0 0 0 0 0 0 0 0 0 0 0 0 0 0 0 0 0 0 0 0 0 0 0 0 0 0 0 0
2 2 2 1 1 1 1 1 1 0 0 0 0 0 0 0 0 0 0 0 0 0 0 0 0 0 0 0 0 0 0 0 0 0 0 0 0 0 0 0 0 0 0
2 2 2 1 1 1 1 1 1 0 0 0 0 0 0 0 0 0 0 0 0 0 0 0 0 0 0 0 0 0 0 0 0 0 0 0 0 0 0 0 0 0 0
2 2 2 1 1 1 1 1 1 0 0 0 0 0 0 0 0 0 0 0 0 0 0 0 0 0 0 0 0 0 0 0 0 0 0 0 0 0 0 0 0 0 0
1 1 1 1 1 1 1 1 1 0 0 0 0 0 0 0 0 0 0 0 0 0 0 0 0 0 0 0 0 0 0 0 0 0 0 0 0 0 0 0 0 0 0
1 1 1 1 1 1 1 1 1 1 0 0 0 0 0 0 0 0 0 0 0 0 0 0 0 0 0 0 0 0 0 0 0 0 0 0 0 0 0 0 0 1 1
1 1 1 1 1 1 1 1 1 0 0 0 0 0 0 0 0 0 0 0 0 0 0 0 0 0 0 0 0 0 0 0 0 0 0 0 0 0 0 1 1 1 1
1 1 1 1 1 1 1 1 1 0 0 0 0 0 0 0 0 0 0 0 0 0 0 0 0 0 0 0 0 0 0 0 0 0 0 0 0 0 0 1 1 1 1
1 1 1 1 1 1 1 1 1 1 0 0 0 0 0 0 0 0 0 0 0 0 0 0 0 0 0 0 0 0 0 0 0 0 0 0 0 0 0 0 0 1 1
1 1 1 1 1 1 1 1 1 1 0 0 0 0 0 0 0 0 0 0 0 0 0 0 0 0 0 0 0 0 0 0 0 0 0 0 0 0 0 0 0 0 0
1 1 1 1 1 1 1 1 1 1 1 0 0 0 0 0 0 0 0 0 0 0 0 0 0 0 0 0 0 0 0 0 0 0 0 0 0 0 0 0 0 0 0
1 1 1 1 1 1 1 1 1 1 1 0 0 0 0 0 0 0 0 0 0 0 0 0 0 0 0 0 0 0 0 0 0 0 0 0 0 0 0 0 0 0 0
1 0 1 1 1 1 1 1 1 1 1 1 0 0 0 0 0 0 0 0 0 0 0 0 0 0 0 0 0 0 0 0 0 0 0 0 0 0 0 0 0 0 0
0 0 0 0 0 0 1 1 1 1 1 1 0 0 0 0 0 0 0 0 0 0 0 0 0 0 0 0 0 0 0 0 0 0 0 0 0 0 0 0 0 0 0
0 0 0 0 0 0 0 0 1 1 1 0 0 0 0 0 0 0 0 0 0 0 0 0 0 0 0 0 0 0 0 0 0 0 0 0 0 0 0 0 0 0 0
0 0 0 0 0 0 0 0 0 0 0 0 0 0 0 0 0 0 0 0 0 0 0 0 0 0 0 0 0 0 0 0 0 0 0 0 0 0 0 0 0 0 0
Wind_Speed
5 7 14 15 15 15 14 14 14 13 13 13 13 13 13 13 13 13 13 13 13 13 14 14 15 15 15 16 16 15 15 14 14 13 12 11 11 11 11 10 9 6 10
8 9 14 14 15 15 14 14 13 13 12 12 12 12 12 12 13 13 13 13 13 13 13 14 14 15 15 15 15 14 14 13 12 12 10 8 8 9 9 9 8 6 10
10 9 12 14 14 14 14 14 13 12 12 11 11 11 12 12 12 12 12 12 12 12 13 13 14 14 14 13 13 12 11 11 10 10 8 4 4 8 9 8 8 9 9
10 9 9 13 14 15 14 14 13 12 11 10 11 11 11 12 12 12 12 12 12 12 12 12 13 13 12 12 11 10 9 8 8 7 4 3 3 7 8 8 9 9 9
8 7 9 14 15 15 14 14 13 12 11 10 10 11 11 11 12 12 11 12 12 11 11 11 11 11 10 10 9 8 8 7 7 6 4 3 3 6 9 10 9 10 9
8 7 9 14 14 14 14 13 12 11 10 10 10 10 10 11 12 12 11 11 11 10 10 10 10 9 9 8 8 8 8 8 7 4 3 3 2 7 10 10 9 9 9
8 7 10 13 14 14 14 13 12 11 10 10 10 10 10 11 12 11 11 10 9 9 9 9 9 8 8 8 8 8 8 7 5 3 3 2 2 7 8 8 8 8 7
8 7 9 13 13 13 13 13 12 11 10 9 9 10 10 11 11 10 10 9 8 8 7 7 7 7 6 7 7 7 7 6 5 3 2 2 3 6 7 8 7 7 7
7 6 7 8 10 12 12 11 11 10 9 8 9 8 9 9 10 9 9 8 7 6 6 5 5 5 5 5 6 6 6 6 3 1 1 1 3 5 5 5 5 5 6
6 6 6 7 7 7 7 9 9 9 8 7 8 8 8 7 7 8 7 6 6 5 5 4 3 3 4 4 4 5 5 4 2 1 1 1 1 2 3 3 4 4 4
6 5 6 6 6 6 6 7 7 7 7 7 6 8 6 4 3 4 4 4 4 4 4 3 2 1 3 4 4 4 3 1 1 0 1 3 2 2 2 2 2 2 3
8 7 6 7 6 6 5 4 4 3 4 4 4 4 3 3 2 2 3 3 3 3 3 3 2 0 2 2 2 3 1 0 1 1 2 5 5 4 3 3 3 2 3
8 7 7 6 6 6 4 4 3 2 3 3 4 4 3 2 2 1 1 1 1 1 0 1 1 1 1 0 0 0 1 1 1 2 3 7 7 7 6 5 5 4 4
8 8 7 7 6 6 5 4 4 3 3 3 3 4 3 2 2 2 2 2 1 1 1 1 1 1 1 1 1 2 2 2 2 2 4 8 9 9 8 7 7 7 6
9 8 8 7 7 6 5 4 4 4 4 4 3 4 4 3 3 3 2 2 2 2 2 2 2 3 3 3 2 3 3 4 4 4 3 8 10 11 11 10 10 9 9
8 8 7 8 7 7 5 5 5 4 4 4 4 5 5 4 4 4 3 3 3 3 3 3 4 3 3 3 4 4 4 4 4 5 5 6 10 12 13 13 13 12 11
7 7 7 7 7 7 7 6 5 4 4 4 4 5 6 5 5 4 4 4 4 4 4 3 4 3 3 3 5 5 4 5 5 6 6 5 5 10 13 16 16 15 14
5 5 6 6 7 7 7 6 4 4 5 4 4 4 6 7 6 5 4 5 5 4 4 4 4 3 4 4 4 4 4 4 6 6 5 5 5 5 9 16 16 16 16
4 5 5 4 5 6 6 5 4 4 5 4 4 4 5 6 6 6 5 5 5 4 4 5 4 4 4 5 5 5 5 5 6 6 6 7 7 7 6 10 14 14 15
2 3 3 3 3 3 3 2 2 2 3 3 3 4 4 5 6 6 5 5 5 4 4 5 6 5 4 4 4 5 5 5 5 5 7 6 6 7 7 7 7 9 14
3 3 2 2 2 2 2 2 2 2 2 2 3 3 3 4 4 5 4 4 4 5 6 6 5 5 5 3 2 4 4 5 6 5 5 4 5 6 6 6 6 5 6
3 3 3 2 2 2 2 2 2 2 1 1 1 1 1 2 2 3 4 4 4 4 5 5 5 3 3 3 3 2 3 3 4 5 4 4 5 3 4 5 5 6 5
3 3 3 3 3 2 1 2 2 2 1 1 0 0 1 1 1 2 3 3 3 4 4 5 5 6 5 3 4 4 3 4 3 2 2 3 3 3 3 3 4 5 5
3 3 4 4 4 3 2 2 2 2 1 0 0 0 1 2 2 1 1 2 2 2 3 4 4 4 5 4 3 4 5 3 3 3 2 2 2 2 3 3 3 4 4
3 4 4 5 5 5 4 3 2 2 1 0 1 2 2 2 3 3 2 2 1 2 2 3 3 3 4 4 3 3 4 3 4 4 4 2 1 1 1 2 2 2 3
4 4 4 5 5 5 5 4 4 3 2 1 2 2 2 2 3 5 4 3 2 2 2 2 2 2 2 3 3 2 2 2 3 4 5 3 3 2 1 1 2 2 2
Wind_Direction
174 168 160 154 147 141 134 128 122 117 113 110 107 106 105 105 103 98 95 90 87 86 87 89 90 91 92 92 91 90 87 83 79 77 74 74 78 81 80 74 66 54 70
154 159 156 154 149 144 138 131 125 120 117 114 112 112 112 111 108 103 99 94 90 89 89 92 94 95 95 94 93 91 88 85 82 77 66 58 70 83 85 81 78 76 74
145 153 152 152 149 145 138 133 128 125 122 120 119 120 118 117 112 107 104 99 94 91 92 94 95 97 97 97 95 93 90 88 84 75 63 43 60 85 89 86 81 80 76
145 147 149 150 148 144 139 136 132 130 127 124 125 125 124 123 117 111 107 102 97 95 95 97 98 99 98 96 93 92 93 93 86 74 54 36 34 85 88 86 83 81 75
140 141 148 148 147 143 140 138 136 133 131 128 128 130 130 128 122 115 108 106 102 100 101 102 102 101 98 94 90 88 95 97 87 71 52 37 29 82 84 83 81 78 75
136 139 148 147 144 141 141 141 139 137 134 130 129 133 135 132 126 118 114 112 109 108 109 108 105 102 97 91 86 87 96 97 82 67 49 39 36 86 87 84 80 77 74
139 142 148 145 144 143 144 143 142 140 138 135 134 135 136 132 126 121 121 119 118 116 115 113 110 104 95 89 85 89 96 102 92 75 54 39 61 91 89 85 81 78 76
140 141 146 145 143 144 146 146 145 145 144 143 142 140 139 134 131 131 130 130 128 126 122 119 114 105 95 88 86 91 97 97 94 77 58 43 84 93 90 85 81 77 77
133 136 140 143 143 145 147 147 147 146 147 146 144 140 136 136 139 141 141 142 142 138 132 126 118 109 95 83 81 88 94 95 92 70 51 32 96 100 98 93 88 83 76
129 134 137 139 139 140 144 148 146 146 147 143 139 133 131 136 143 146 146 152 155 152 145 140 129 109 83 70 71 82 94 90 84 56 19 296 158 120 112 105 100 95 89
150 146 145 142 141 140 144 149 146 146 146 137 133 136 128 123 128 139 150 159 162 162 165 176 177 123 77 55 57 76 87 93 103 281 283 265 232 194 160 146 133 123 114
171 167 158 153 149 146 149 137 134 133 134 130 132 133 125 123 125 129 161 176 177 178 192 216 229 130 77 57 37 52 66 170 211 246 260 263 246 231 212 194 186 179 161
175 174 168 163 157 153 144 142 138 132 135 143 151 149 138 130 125 120 128 178 194 198 209 295 336 34 70 88 43 336 275 239 237 248 259 264 255 246 233 221 214 211 203
177 183 175 170 166 163 155 156 156 155 161 170 172 164 154 157 171 178 186 198 197 194 208 226 240 254 264 259 240 244 250 243 242 240 251 258 257 252 245 234 226 223 219
184 188 183 175 174 170 164 168 171 178 183 184 179 181 177 179 191 197 204 205 209 203 207 219 231 244 256 264 255 242 242 242 245 241 247 253 255 253 249 243 235 231 227
190 192 186 183 182 176 176 180 182 187 189 187 193 196 192 192 195 199 209 214 218 213 210 213 223 233 246 252 262 254 246 240 239 238 236 247 248 247 245 244 241 237 232
194 191 188 189 184 184 187 190 188 190 187 195 204 202 201 202 203 204 210 218 223 215 214 218 228 229 244 245 255 257 251 242 237 237 235 233 241 242 241 242 243 240 236
185 184 189 190 184 190 192 192 190 192 194 204 206 204 207 209 207 206 213 225 221 209 209 217 223 228 239 240 247 251 248 246 243 238 234 231 231 235 239 241 243 243 240
177 175 179 179 176 187 192 192 193 192 198 204 204 209 212 212 209 207 217 224 213 210 214 222 219 214 233 239 242 247 245 243 245 243 237 234 230 230 230 239 241 242 241
145 155 165 163 167 173 172 169 180 194 203 202 206 215 215 214 210 209 218 221 209 212 219 219 226 219 227 237 249 255 249 245 243 240 242 241 236 234 232 234 237 240 239
88 109 129 133 134 138 136 154 172 198 201 205 212 219 218 218 214 211 221 219 211 219 225 221 221 228 235 219 239 272 269 246 242 242 237 239 243 240 236 235 233 234 241
97 95 97 99 97 123 152 153 159 159 174 189 197 206 220 225 226 220 224 225 218 225 231 226 215 220 226 187 194 241 288 300 266 241 234 237 246 243 241 241 239 238 239
95 93 97 90 80 68 92 114 94 86 67 62 28 320 319 288 257 241 236 232 228 221 231 232 221 223 235 219 199 208 237 252 289 287 254 247 251 246 251 251 245 246 244
107 92 87 81 70 53 58 100 141 163 187 199 328 344 357 10 358 335 297 261 247 238 243 246 234 228 229 236 217 223 232 233 252 287 279 268 260 260 264 264 259 253 250
106 93 83 77 63 51 56 79 105 120 153 45 36 30 21 20 16 6 358 344 307 276 265 262 254 238 231 237 226 214 231 239 231 251 272 270 294 277 280 280 288 288 286
99 90 86 80 62 49 56 61 81 97 89 75 39 22 12 12 13 11 8 4 347 328 306 289 273 258 252 248 245 222 211 218 220 233 256 261 263 276 308 323 333 338 338